Location: *
(43.0833°N, 13.0500°E)
Time: 18:30:24
(UTC+00:00)

Cosmos 2227 Rocket - Pass Details

Date: 15 November 2019
Orbit: 838 x 846 km, 71.0° (Epoch: 12 December)

Event Time Altitude Azimuth Distance (km) Brightness Sun altitude
Rises 16:55:20 0° 335° (NNW) 3,414 5.5 -13.1°
Reaches altitude 10° 16:57:48 10° 336° (NNW) 2,474 4.8 -13.5°
Maximum altitude 17:03:30 85° 66° (ENE) 853 2.1 -14.5°
Drops below altitude 10° 17:09:09 10° 155° (SSE) 2,454 4.5 -15.5°
Sets 17:11:35 0° 156° (SSE) 3,383 5.2 -16.0°
